EDT,Max TemperatureF,Mean TemperatureF,Min TemperatureF,Max Dew PointF,MeanDew PointF,Min DewpointF,Max Humidity, Mean Humidity, Min Humidity, Max Sea Level PressureIn, Mean Sea Level PressureIn, Min Sea Level PressureIn, Max VisibilityMiles, Mean VisibilityMiles, Min VisibilityMiles, Max Wind SpeedMPH, Mean Wind SpeedMPH, Max Gust SpeedMPH,PrecipitationIn, CloudCover, Events, WindDirDegrees
2013-5-1,60,46,33,43,33,27,100,59,27,30.47,30.44,30.38,10,10,9,13,4,17,0.00,0,,195
2013-5-2,53,44,35,46,38,34,100,76,47,30.53,30.46,30.42,10,10,2,17,5,18,0.00,1,,76
2013-5-3,62,50,39,45,39,36,100,72,48,30.56,30.47,30.38,10,10,10,14,9,20,0.00,2,,57
2013-5-4,53,44,35,41,37,34,100,79,51,30.40,30.37,30.34,10,10,2,16,7,21,0.00,0,,81
2013-5-5,53,43,33,39,37,32,100,76,51,30.34,30.30,30.26,10,9,5,15,6,17,0.00,0,,227
2013-5-6,53,42,30,45,40,30,100,87,58,30.29,30.25,30.19,10,7,0,16,5,17,0.00,2,,187
2013-5-7,64,53,42,52,47,41,100,87,59,30.19,30.16,30.12,10,5,0,13,6,18,0.00,5,,210
2013-5-8,64,52,41,59,50,39,100,93,77,30.26,30.20,30.15,10,7,0,12,3,16,0.00,4,,114
2013-5-9,53,50,48,54,50,46,100,97,88,30.14,30.01,29.92,10,4,0,10,6,,0.46,8,Thunderstorm,70
2013-5-10,57,52,48,55,51,46,100,94,82,29.97,29.93,29.89,10,6,0,10,4,,0.00,6,,129
2013-5-11,57,52,48,55,51,46,100,96,88,29.96,29.81,29.71,10,6,0,15,8,23,0.22,8,,163
2013-5-12,57,54,50,55,52,43,100,95,76,29.70,29.61,29.53,10,4,0,14,6,23,0.20,7,,198
2013-5-13,53,46,39,43,36,30,100,64,47,29.98,29.85,29.70,10,10,3,23,9,34,0.00,1,,229
2013-5-14,53,48,44,37,31,27,76,53,38,30.00,29.97,29.92,10,10,10,10,4,17,0.00,6,,303
2013-5-15,57,47,37,46,36,27,100,68,31,30.00,29.91,29.68,10,9,3,18,7,26,0.24,2,,221
2013-5-16,68,58,48,55,48,41,94,73,49,29.76,29.63,29.56,10,9,2,14,8,20,0.00,5,,230
2013-5-17,62,52,42,43,38,32,81,55,32,30.19,29.97,29.77,10,10,10,13,6,24,0.00,4,,324
2013-5-18,53,45,37,43,40,36,93,80,54,30.35,30.29,30.19,10,10,10,13,4,17,0.00,2,,130
2013-5-19,51,46,42,48,44,39,100,86,71,30.39,30.34,30.26,10,8,0,13,6,,0.00,6,,104
2013-5-20,60,54,48,57,52,46,100,96,88,30.24,30.03,29.93,10,7,0,12,4,17,0.93,7,,108
2013-5-21,51,48,46,52,47,45,100,94,93,30.07,30.03,29.98,10,9,2,14,6,16,0.22,8,,79
2013-5-22,51,50,48,48,47,46,100,94,88,30.09,29.97,29.93,10,8,2,14,8,22,0.72,8,,79
2013-5-23,60,54,48,57,52,46,100,96,88,29.96,29.88,29.83,10,5,0,16,6,25,0.00,8,,172
2013-5-24,57,54,50,57,54,46,100,96,82,29.83,29.75,29.65,10,4,0,20,11,29,1.11,8,,195
2013-5-25,51,50,48,50,47,46,100,94,87,29.80,29.71,29.66,10,6,2,21,13,30,0.33,8,,41
2013-5-26,53,48,44,48,44,39,100,88,62,29.93,29.73,29.59,10,8,2,16,10,26,0.16,7,,25
2013-5-27,66,52,39,43,36,30,93,57,26,30.16,30.02,29.93,10,10,10,17,9,31,0.01,2,,292
2013-5-28,66,50,35,45,39,36,100,65,32,30.23,30.21,30.16,10,10,3,15,3,20,0.07,0,,219
2013-5-29,53,48,44,54,50,45,100,97,93,30.23,30.13,30.00,10,3,0,12,4,18,0.10,7,,117
2013-5-30,82,66,51,64,58,50,100,81,48,30.02,29.98,29.96,10,8,0,16,4,22,0.00,4,,251
2013-5-31,84,68,53,66,60,52,100,72,48,30.03,29.96,29.88,10,10,6,17,4,23,0.00,0,,231